Location: Moscow
(55.7500°N, 37.5830°E)
Time: 06:11:40
(UTC+03:00)

Vanguard 1 Rocket - Pass Details

Date: 02 December 2021
Orbit: 651 x 4225 km, 34.3° (Epoch: 26 January)

Event Time Altitude Azimuth Distance (km) Brightness Sun altitude
Exits shadow 04:30:33 22° 204° (SSW) 4,189 10.4 -33.2°
Maximum altitude 04:38:21 34° 163° (SSE) 4,297 10.7 -32.1°
Drops below altitude 10° 04:57:08 10° 110° (ESE) 7,219 12.7 -29.5°
Sets 05:04:06 0° 103° (ESE) 8,439 13.5 -28.5°
